Temperature
19 19 19 19 19 19 19 19 19 19 19 19 19 19 19 19 19 19 18 18 18 18 18 18 18 18 18 18 18 18 18 18 17 17 17 17 17 17 17 17 17 17 17
20 19 19 19 19 19 19 19 19 19 19 19 19 19 19 19 19 19 18 18 18 18 18 18 18 18 18 18 18 17 17 17 17 17 17 17 17 17 17 17 17 17 17
20 20 20 20 19 19 19 19 19 19 19 19 19 19 19 19 19 19 18 18 18 18 18 18 18 18 18 17 17 17 17 17 17 17 17 17 17 17 17 17 17 17 17
20 20 20 20 19 19 19 19 19 19 19 19 18 19 19 18 18 18 18 18 18 18 18 18 18 18 18 17 17 17 17 17 17 17 17 17 17 17 17 17 17 17 17
20 20 20 20 19 19 19 19 19 19 19 19 18 18 18 18 18 18 18 18 18 18 18 18 18 18 17 17 17 17 17 17 17 17 17 17 17 17 17 17 17 17 17
20 20 20 20 20 19 19 19 19 19 19 19 18 18 18 18 18 18 18 18 18 18 18 18 18 18 17 17 17 17 17 17 17 17 17 17 17 17 17 17 17 16 16
20 20 20 20 20 19 19 19 19 19 19 19 19 18 18 18 18 18 18 18 18 18 18 18 18 18 17 17 17 17 17 17 17 18 18 17 17 17 17 17 17 17 16
21 20 20 20 20 19 19 19 19 19 19 19 19 19 18 18 18 18 18 18 18 18 18 18 18 18 17 17 17 17 17 17 17 18 18 17 17 17 17 17 17 17 16
21 20 20 20 20 19 19 19 19 19 19 19 19 19 18 18 18 18 18 18 18 18 18 18 18 18 17 17 17 17 17 17 17 18 18 17 17 17 17 17 17 17 16
21 21 20 20 20 20 19 19 19 19 19 19 18 18 18 18 18 18 18 18 18 18 18 18 18 18 17 17 17 17 17 17 18 18 18 18 17 17 17 17 17 17 16
20 20 20 20 20 20 19 19 19 19 19 18 18 18 18 18 18 18 18 18 18 18 18 18 18 18 18 17 17 17 17 17 18 18 18 18 17 17 17 17 17 17 17
20 20 20 20 20 20 19 19 19 19 19 18 18 18 18 18 18 18 18 18 18 18 18 18 18 18 18 18 17 17 17 17 18 18 18 18 17 17 17 17 17 17 17
21 20 20 20 20 20 19 19 19 19 19 18 18 18 18 18 18 18 18 18 18 18 18 18 18 18 18 18 18 18 18 17 18 18 18 18 18 17 17 17 17 17 17
21 20 20 20 20 19 19 19 19 19 19 18 18 18 18 18 18 18 18 18 18 18 18 18 18 18 18 18 18 18 18 18 18 18 18 18 18 17 17 17 17 17 17
21 20 20 20 20 19 19 19 19 19 19 19 18 18 18 18 18 18 18 18 18 18 18 18 18 18 18 18 18 18 18 18 18 18 18 18 18 17 17 17 17 17 17
21 21 20 20 20 19 19 19 19 19 19 18 18 18 18 18 18 18 18 18 18 18 18 18 18 18 18 18 18 18 18 18 18 18 18 18 17 17 17 17 17 17 17
21 21 20 20 20 20 19 19 19 19 19 19 18 18 18 18 18 18 18 18 18 18 18 18 18 18 18 18 18 18 18 18 18 18 18 18 17 17 17 17 17 17 17
21 21 21 20 20 20 20 19 19 19 19 19 18 18 18 18 18 18 18 18 18 18 18 18 18 18 18 18 18 18 18 18 18 18 18 17 17 17 17 17 17 17 17
22 21 21 21 20 20 20 20 19 19 19 19 19 18 18 18 18 18 18 18 18 18 18 18 18 18 18 18 18 18 18 18 18 18 18 18 17 17 17 17 17 17 17
22 21 21 21 20 20 20 20 19 19 19 19 19 19 19 18 18 18 18 18 18 18 18 18 18 18 18 18 18 18 18 18 18 18 18 17 17 17 17 17 17 17 17
22 21 21 21 20 20 20 20 19 19 19 19 19 18 18 18 18 18 18 18 18 18 18 18 18 18 18 18 18 18 18 18 18 18 18 18 18 17 17 17 17 17 17
22 21 21 21 20 20 20 20 19 19 19 19 18 18 18 18 18 18 18 18 18 18 18 18 18 18 18 18 18 18 17 18 18 18 18 18 18 18 17 17 17 17 17
22 21 21 21 20 20 20 19 19 19 19 18 18 18 18 18 18 18 18 18 18 18 18 18 18 18 18 18 18 17 17 17 18 18 18 18 18 18 18 17 17 17 17
22 21 21 21 20 20 20 19 19 19 19 19 18 18 18 18 18 18 18 18 18 18 18 18 18 18 18 18 18 17 17 17 17 18 18 18 18 18 18 17 17 17 17
22 21 21 21 20 20 20 19 19 19 19 18 18 18 18 18 18 18 18 18 18 18 18 18 18 18 18 17 17 17 17 17 17 17 17 18 18 18 18 17 17 17 17
22 21 21 21 20 20 20 19 19 19 19 18 18 18 18 18 18 18 18 18 18 18 18 18 18 18 17 17 17 17 17 17 17 17 17 17 17 17 17 17 17 17 17
Wind_Speed
5 9 15 15 15 16 16 16 17 17 18 19 19 19 20 20 20 20 19 19 19 19 19 19 19 19 19 19 19 19 19 19 19 18 18 18 19 19 19 19 18 17 19
9 12 16 16 16 16 16 16 16 17 17 18 18 18 19 19 19 19 19 18 18 18 18 18 18 18 18 18 18 19 18 18 18 18 18 17 18 18 18 18 17 16 18
11 14 16 16 16 16 16 15 16 16 17 17 17 17 18 18 18 18 18 17 17 17 17 17 17 17 17 17 17 17 17 17 17 17 17 15 16 18 18 18 18 18 18
14 14 16 17 16 16 16 15 16 16 16 16 16 16 17 17 17 17 17 16 16 16 16 16 16 16 16 16 15 15 15 16 16 16 13 13 14 17 18 18 18 17 17
12 14 17 17 16 16 16 15 15 15 15 15 16 16 15 16 16 16 16 15 15 15 14 14 14 14 14 14 13 13 13 15 16 15 14 14 14 17 17 17 17 17 16
11 14 17 17 17 16 16 15 15 15 15 15 15 15 15 15 15 15 15 14 14 14 13 13 13 12 12 12 12 12 13 16 15 14 14 13 14 16 16 16 16 16 15
10 13 16 17 16 16 15 15 15 14 14 14 14 14 14 14 14 14 14 13 13 12 12 11 11 10 10 11 11 11 13 16 14 13 13 13 14 16 16 15 15 15 14
12 12 15 17 16 16 15 15 14 14 14 14 14 14 14 14 14 13 12 12 11 11 10 10 9 9 9 9 9 10 13 15 14 13 12 12 15 15 15 15 14 14 14
13 11 12 14 15 15 15 14 14 13 13 13 13 13 13 13 13 12 11 11 10 9 9 8 8 7 7 7 8 10 12 14 13 12 12 12 14 15 14 14 14 13 13
10 9 10 11 12 13 13 13 13 13 12 12 12 12 12 12 12 11 10 9 9 8 8 7 6 5 4 5 7 9 12 13 12 12 11 12 14 14 14 14 13 13 12
10 8 8 9 11 11 11 12 12 12 11 11 11 12 11 9 9 9 9 9 8 7 6 6 4 2 2 3 5 8 9 10 13 11 11 13 14 14 13 13 12 12 12
12 10 8 8 9 10 10 10 9 9 9 8 8 9 9 8 8 8 8 8 7 6 5 4 3 1 1 1 3 6 8 10 11 11 11 14 14 14 13 12 12 12 11
13 12 10 9 10 9 7 9 7 7 8 7 8 8 8 7 7 7 6 5 5 5 3 2 2 2 2 2 1 5 9 10 10 10 12 14 14 14 13 12 12 11 11
12 11 11 10 9 8 9 8 7 6 6 6 8 9 8 6 5 5 5 4 5 4 4 3 3 4 4 4 3 6 9 9 11 11 13 15 14 13 13 13 12 12 11
11 10 10 10 9 8 7 6 7 6 7 8 8 9 9 6 5 5 5 5 5 5 5 4 4 4 3 3 3 7 8 10 12 12 12 15 14 14 14 13 13 12 12
11 10 9 9 9 8 5 5 5 7 7 7 7 8 10 8 6 5 4 4 5 6 6 6 5 3 2 2 2 6 8 10 11 12 13 14 15 15 14 14 14 13 13
11 10 10 9 8 7 6 5 5 6 7 6 7 9 9 9 8 5 4 3 5 6 6 4 3 1 1 1 2 3 6 8 10 12 13 13 14 15 15 15 15 15 14
11 10 10 9 8 7 5 4 4 6 7 7 7 8 9 9 8 6 3 3 4 5 4 2 2 1 1 1 1 2 3 5 8 11 12 13 13 13 15 17 17 16 16
12 11 9 8 8 7 5 4 4 5 5 6 7 7 8 9 9 7 4 4 5 3 2 3 2 2 2 2 2 2 2 4 5 9 9 12 14 14 15 17 18 18 17
10 10 9 8 8 6 4 2 1 2 2 4 6 7 8 8 8 7 5 4 4 3 3 2 2 2 2 2 2 1 2 3 4 5 7 10 12 14 16 15 15 16 18
9 9 9 8 7 5 3 3 2 2 2 2 4 7 8 8 7 6 4 3 4 4 4 4 3 2 2 1 1 2 3 2 3 4 4 6 8 12 14 15 14 14 14
10 9 8 8 7 6 4 4 3 3 2 2 2 4 7 7 7 7 5 4 4 3 3 3 3 2 2 2 3 1 2 4 3 4 3 5 5 7 9 13 12 13 14
9 9 8 7 6 5 4 2 2 1 1 1 1 2 4 7 7 7 7 5 4 4 4 5 4 4 3 2 3 4 3 4 3 3 3 4 4 4 5 9 11 13 14
9 8 7 6 6 5 5 4 4 3 3 3 2 3 3 5 6 7 6 6 5 4 5 5 5 4 4 3 2 3 3 4 3 2 3 3 4 5 6 6 9 11 13
9 9 7 7 6 5 5 6 5 3 3 2 1 2 2 2 4 5 6 5 5 4 5 5 4 4 4 4 4 3 2 2 2 3 3 3 3 3 4 5 5 8 10
7 7 7 7 6 6 5 5 5 5 3 2 2 2 2 1 2 3 4 3 4 4 4 4 4 5 5 5 4 4 3 3 3 3 4 3 3 3 2 3 4 5 9
Wind_Direction
129 129 120 113 107 103 98 95 93 92 91 92 93 93 95 96 97 96 96 95 96 96 97 98 99 101 103 104 106 106 107 108 108 109 112 113 114 113 113 113 110 109 111
139 131 122 118 113 108 103 99 97 95 95 95 96 97 98 98 98 98 97 97 96 97 97 98 99 101 102 104 106 107 108 108 108 108 109 111 113 114 114 113 112 114 113
129 128 123 120 116 111 106 103 101 99 98 99 99 100 100 100 101 101 100 100 99 99 100 100 100 101 102 103 105 107 108 107 107 106 104 104 109 112 114 115 113 112 113
130 128 126 123 119 115 111 108 106 104 102 102 102 103 103 103 104 104 103 101 101 102 103 102 101 101 101 103 105 108 109 109 109 108 103 104 110 113 115 115 114 113 113
126 128 129 126 122 119 117 114 112 110 107 105 105 106 106 106 106 106 105 103 103 104 105 104 104 103 103 102 102 105 109 114 110 104 101 102 109 116 117 117 116 116 116
126 131 133 129 127 124 121 119 116 115 112 110 109 109 110 110 109 108 107 106 106 107 107 107 106 103 102 102 100 101 109 114 110 105 104 107 114 118 120 120 119 119 119
131 134 135 133 131 128 126 124 122 120 118 116 114 115 115 115 114 112 111 110 110 111 112 111 108 103 100 100 98 101 111 117 116 111 109 112 119 123 124 122 120 121 121
137 136 137 136 135 133 131 129 128 127 124 122 121 121 121 121 119 117 116 115 114 115 116 114 111 105 100 100 95 99 115 122 121 118 115 119 126 127 127 125 124 123 123
137 136 136 140 139 138 136 135 133 132 130 128 127 127 128 128 126 124 123 121 121 121 122 119 116 110 100 93 94 105 115 123 124 125 126 127 130 130 130 129 129 128 128
138 141 140 139 139 140 142 141 140 139 139 138 137 136 136 136 134 132 132 129 127 126 127 128 126 119 103 93 97 108 121 122 130 127 129 135 136 136 136 136 136 135 132
148 152 150 147 146 145 146 148 146 145 148 147 148 146 142 139 140 142 144 141 139 137 137 140 143 142 113 91 103 118 123 124 133 133 138 143 143 143 142 142 142 140 138
163 167 165 161 159 160 157 150 152 153 155 152 154 154 156 158 161 159 157 155 155 155 154 161 172 197 304 60 115 130 132 132 140 143 150 151 150 150 148 148 149 149 147
168 170 172 170 169 170 153 157 167 166 165 167 165 164 165 166 167 160 161 166 171 175 183 200 214 248 271 275 184 152 147 144 150 154 159 160 158 156 156 157 157 157 158
167 169 169 169 167 168 160 168 172 172 175 176 178 176 167 161 165 167 170 181 191 196 200 217 236 256 267 257 191 158 156 154 159 158 165 167 165 164 164 165 166 166 167
162 161 161 159 161 158 157 171 172 176 179 179 178 178 171 164 171 174 183 191 205 206 203 211 228 243 242 223 175 158 158 160 161 164 171 174 174 174 174 174 175 175 178
159 157 156 153 153 150 153 158 165 175 176 175 175 179 171 169 169 171 181 191 204 205 205 204 208 208 221 196 173 169 164 164 170 171 175 180 184 185 185 184 185 185 188
157 154 155 154 150 148 150 156 160 171 171 175 184 186 177 172 171 170 172 190 202 202 193 189 201 184 219 207 169 169 168 167 172 178 182 184 190 195 196 196 196 196 197
155 156 163 160 153 156 159 157 159 172 171 179 186 188 182 176 174 165 174 199 201 185 175 173 177 158 194 185 192 186 175 169 180 185 187 191 194 200 206 207 206 205 206
162 160 163 159 165 168 167 165 167 168 173 180 179 186 181 179 178 172 181 201 194 176 177 193 174 168 186 210 223 208 201 191 189 193 195 199 202 206 208 213 213 211 213
161 158 159 162 170 165 162 154 141 149 176 180 179 190 185 183 182 181 188 200 183 170 180 182 172 177 193 202 230 241 243 226 204 200 203 203 208 212 212 212 214 216 218
158 157 161 162 172 165 165 170 173 190 199 198 199 196 192 190 187 185 193 189 182 181 188 184 172 178 205 170 93 337 320 281 233 217 208 201 209 214 210 210 212 215 220
165 165 165 167 173 177 179 181 181 176 191 200 210 200 202 201 199 199 195 193 190 183 188 192 177 176 215 166 147 129 321 322 295 243 220 211 212 208 206 207 206 212 218
164 166 170 168 169 174 173 154 131 97 63 122 190 220 222 213 207 203 198 195 197 190 197 204 193 184 206 219 172 159 174 230 277 293 241 220 213 208 208 204 207 214 215
170 164 162 163 167 171 161 160 166 179 195 210 204 214 233 223 213 211 205 198 201 199 202 212 198 191 184 209 222 209 197 180 191 275 293 251 225 216 215 213 208 211 213
163 163 164 162 170 172 172 176 174 187 201 193 190 201 222 242 231 222 216 204 206 206 209 214 205 198 193 200 207 208 218 219 197 199 260 280 275 238 213 207 204 205 207
161 162 165 163 172 174 177 180 183 190 184 168 174 190 210 249 264 243 227 211 212 210 215 218 213 209 208 210 212 204 197 199 210 203 229 249 258 267 226 205 200 207 209
Height
1544 1544 1545 1545 1545 1545 1545 1545 1545 1545 1545 1545 1545 1546 1546 1546 1546 1547 1547 1547 1547 1548 1548 1548 1549 1550 1550 1551 1552 1552 1553 1554 1554 1555 1555 1556 1557 1557 1558 1559 1559 1560 1562
1543 1545 1546 1546 1546 1547 1547 1547 1547 1547 1547 1547 1548 1548 1548 1549 1549 1549 1549 1550 1550 1551 1551 1551 1552 1552 1553 1554 1554 1555 1556 1556 1557 1557 1558 1558 1559 1560 1560 1561 1562 1562 1563
1544 1546 1547 1548 1548 1548 1549 1549 1549 1549 1549 1550 1550 1550 1551 1551 1551 1551 1552 1552 1553 1553 1553 1554 1554 1555 1556 1557 1557 1558 1558 1559 1559 1560 1560 1560 1561 1562 1562 1563 1564 1565 1566
1545 1547 1548 1549 1550 1550 1550 1551 1551 1551 1551 1552 1552 1552 1553 1553 1553 1554 1554 1555 1555 1555 1556 1557 1557 1558 1559 1559 1560 1560 1560 1561 1561 1562 1562 1563 1563 1564 1565 1565 1566 1567 1568
1547 1548 1549 1550 1551 1551 1552 1552 1553 1553 1553 1554 1554 1554 1555 1555 1556 1556 1557 1557 1557 1558 1559 1559 1560 1560 1561 1562 1562 1562 1563 1563 1564 1564 1564 1565 1565 1566 1567 1567 1568 1569 1570
1548 1549 1550 1551 1552 1553 1553 1554 1554 1555 1555 1556 1556 1556 1557 1557 1558 1558 1559 1559 1560 1560 1561 1561 1562 1563 1564 1564 1564 1565 1565 1565 1566 1566 1566 1567 1567 1568 1569 1570 1570 1571 1572
1548 1550 1551 1552 1553 1554 1555 1555 1556 1556 1557 1557 1558 1558 1559 1559 1560 1560 1561 1561 1562 1563 1563 1564 1564 1565 1566 1566 1567 1567 1567 1567 1568 1568 1568 1569 1569 1570 1571 1572 1572 1573 1574
1549 1551 1552 1554 1555 1555 1556 1557 1557 1558 1558 1559 1559 1560 1560 1561 1562 1562 1563 1564 1564 1565 1565 1566 1567 1567 1568 1568 1569 1569 1569 1569 1570 1570 1570 1571 1571 1572 1573 1573 1574 1575 1576
1551 1552 1553 1555 1556 1556 1557 1558 1558 1559 1560 1560 1561 1562 1562 1563 1564 1564 1565 1565 1566 1567 1567 1568 1569 1570 1570 1571 1571 1571 1571 1571 1571 1572 1572 1572 1573 1574 1575 1575 1576 1577 1578
1552 1554 1554 1556 1557 1557 1558 1559 1560 1560 1561 1562 1562 1563 1564 1565 1565 1566 1566 1567 1568 1568 1569 1570 1571 1572 1572 1573 1573 1573 1573 1573 1573 1573 1574 1574 1575 1575 1576 1577 1578 1578 1579
1553 1555 1556 1557 1558 1558 1559 1560 1561 1562 1562 1563 1564 1564 1565 1566 1567 1567 1568 1569 1569 1570 1571 1572 1572 1573 1574 1575 1575 1575 1575 1575 1575 1575 1575 1576 1576 1577 1577 1578 1579 1580 1580
1553 1555 1556 1558 1558 1559 1560 1561 1562 1563 1563 1564 1565 1565 1566 1567 1568 1569 1569 1570 1571 1572 1572 1573 1574 1575 1576 1576 1576 1576 1576 1576 1576 1576 1577 1577 1577 1578 1579 1579 1580 1581 1581
1553 1555 1556 1558 1559 1560 1561 1562 1563 1563 1564 1565 1565 1566 1567 1568 1569 1570 1570 1571 1572 1573 1574 1574 1575 1576 1576 1577 1577 1577 1577 1577 1577 1578 1578 1578 1578 1579 1579 1580 1581 1581 1582
1552 1554 1556 1557 1558 1560 1561 1562 1563 1564 1564 1565 1566 1566 1567 1568 1569 1570 1571 1572 1573 1574 1575 1575 1576 1576 1577 1577 1577 1578 1578 1578 1578 1578 1579 1579 1579 1579 1580 1580 1581 1582 1582
1552 1554 1555 1557 1558 1559 1561 1562 1563 1564 1565 1565 1566 1567 1567 1568 1569 1571 1571 1572 1573 1574 1575 1576 1576 1576 1577 1577 1578 1578 1578 1578 1579 1579 1579 1579 1580 1580 1580 1581 1581 1582 1583
1552 1554 1555 1557 1558 1560 1561 1562 1562 1563 1564 1565 1566 1567 1567 1568 1569 1570 1571 1572 1573 1574 1575 1575 1576 1577 1577 1578 1578 1578 1578 1579 1579 1579 1580 1580 1580 1580 1580 1581 1581 1582 1582
1552 1554 1556 1557 1558 1560 1561 1562 1562 1563 1564 1565 1566 1567 1567 1568 1569 1570 1571 1571 1572 1573 1574 1575 1576 1576 1577 1577 1578 1578 1578 1578 1579 1579 1579 1580 1580 1580 1580 1581 1581 1581 1582
1552 1554 1555 1557 1558 1559 1560 1561 1562 1562 1563 1564 1565 1566 1567 1567 1568 1569 1570 1571 1572 1572 1573 1574 1575 1575 1576 1576 1577 1577 1577 1578 1578 1578 1579 1579 1579 1579 1579 1580 1580 1581 1581
1551 1553 1554 1556 1557 1558 1559 1560 1560 1561 1562 1563 1564 1564 1565 1566 1567 1568 1568 1569 1570 1571 1572 1573 1574 1574 1575 1575 1576 1576 1576 1576 1577 1577 1577 1577 1578 1578 1578 1579 1579 1579 1580
1550 1552 1553 1555 1556 1557 1558 1559 1559 1560 1561 1562 1562 1563 1564 1564 1565 1566 1567 1568 1569 1570 1571 1571 1572 1573 1573 1574 1574 1574 1575 1575 1575 1575 1575 1576 1576 1576 1576 1577 1577 1578 1578
1549 1551 1552 1553 1554 1555 1556 1557 1558 1558 1559 1560 1561 1562 1562 1563 1563 1565 1565 1566 1567 1568 1569 1570 1571 1571 1572 1573 1573 1573 1573 1573 1573 1573 1573 1573 1573 1574 1574 1574 1575 1575 1576
1547 1549 1550 1552 1553 1554 1555 1556 1557 1558 1558 1558 1559 1560 1561 1561 1561 1562 1564 1564 1565 1566 1567 1568 1569 1569 1570 1571 1571 1571 1571 1571 1570 1570 1571 1571 1571 1571 1571 1572 1572 1572 1573
1545 1547 1549 1550 1551 1553 1554 1555 1556 1556 1556 1556 1557 1558 1558 1559 1559 1560 1561 1563 1564 1564 1565 1566 1566 1567 1567 1568 1568 1569 1568 1567 1567 1568 1567 1568 1568 1568 1568 1568 1569 1569 1570
1544 1546 1547 1549 1550 1550 1552 1553 1553 1553 1554 1554 1555 1556 1556 1557 1557 1558 1559 1560 1561 1561 1562 1563 1564 1564 1564 1565 1566 1566 1566 1566 1566 1564 1565 1565 1565 1564 1565 1565 1565 1566 1566
1543 1544 1546 1547 1548 1549 1550 1551 1551 1552 1552 1553 1553 1554 1554 1555 1555 1556 1557 1557 1558 1558 1559 1560 1560 1561 1561 1562 1562 1562 1563 1563 1563 1563 1561 1561 1561 1561 1561 1562 1562 1562 1562
1542 1543 1545 1545 1546 1547 1548 1549 1550 1550 1551 1551 1551 1552 1552 1553 1553 1554 1554 1555 1555 1555 1556 1556 1557 1557 1558 1558 1559 1559 1559 1559 1559 1559 1559 1558 1558 1558 1558 1558 1558 1558 1558